Weather History for Myrtle Beach, SC

Change the Weather History Date:

Saturday, March 30, 2013

  Actual Average Record
Temperature  
Mean Temperature 53 °F -  
Max Temperature 60 °F 66 °F 86 °F (1954)
Min Temperature 46 °F 47 °F 29 °F (1955)
Degree Days  
Heating Degree Days 12    
Growing Degree Days 3 (Base 50)    
Moisture  
Dew Point 43 °F    
Average Humidity 71    
Maximum Humidity 88    
Minimum Humidity 54    
Precipitation  
Precipitation 0.00 in - - ()
Sea Level Pressure  
Sea Level Pressure 30.20 in    
Wind  
Wind Speed 6 mph (ESE)    
Max Wind Speed 17 mph    
Max Gust Speed -    
Visibility 10 miles    
Events      
Averages and records for this station are not official NWS values.
T = Trace of Precipitation, MM = Missing Value Source: NWS Daily Summary

Daily Weather History Graph

Daily Weather History Graph

Search for Another Location

Airport:

Trip Planner

Search our weather history database for the weather conditions in past years. The results will help you decide how hot, cold, wet, or windy it might be!

Date:

Astronomy

Mar. 30, 2013 Rise Set
Actual Time 7:05 AM EDT 7:35 PM EDT
Civil Twilight 6:40 AM EDT 8:00 PM EDT
Nautical Twilight 6:11 AM EDT 8:29 PM EDT
Astronomical Twilight 5:41 AM EDT 8:59 PM EDT
Moon 11:27 PM EDT (3/30) 9:09 AM EDT (3/30)
Length of Visible Light 13h 19m
Length of Day
12h 29m
Waning Gibbous, 86% of the Moon is Illuminated
Mar 30
Waning Gibbous
Apr 3
Last Quarter
Apr 10
New
Apr 18
First Quarter
Apr 25
Full

Hourly Weather History & Observations

Time (EDT) Temp. Windchill Dew Point Humidity Pressure Visibility Wind Dir Wind Speed Gust Speed Precip Events Conditions
12:15 AM 53.6 °F - 37.4 °F 54% 30.26 in 10.0 mi SW 6.9 mph - N/A   Overcast
12:35 AM 53.6 °F - 37.4 °F 54% 30.26 in 10.0 mi SW 5.8 mph - N/A   Overcast
12:55 AM 53.6 °F - 37.4 °F 54% 30.26 in 10.0 mi WSW 5.8 mph - N/A   Overcast
1:15 AM 53.6 °F - 37.4 °F 54% 30.26 in 10.0 mi SW 5.8 mph - N/A   Mostly Cloudy
1:35 AM 51.8 °F - 37.4 °F 58% 30.25 in 10.0 mi WSW 4.6 mph - N/A   Scattered Clouds
1:55 AM 51.8 °F - 39.2 °F 62% 30.25 in 10.0 mi WSW 3.5 mph - N/A   Scattered Clouds
2:15 AM 51.8 °F - 39.2 °F 62% 30.25 in 10.0 mi WSW 8.1 mph - N/A   Partly Cloudy
2:35 AM 51.8 °F - 39.2 °F 62% 30.24 in 10.0 mi Calm Calm - N/A   Clear
2:55 AM 51.8 °F - 37.4 °F 58% 30.24 in 10.0 mi Calm Calm - N/A   Clear
3:15 AM 50.0 °F - 39.2 °F 66% 30.23 in 10.0 mi North 5.8 mph - N/A   Partly Cloudy
3:35 AM 48.2 °F - 39.2 °F 71% 30.22 in 10.0 mi NE 3.5 mph - N/A   Mostly Cloudy
3:55 AM 48.2 °F - 39.2 °F 71% 30.22 in 10.0 mi Calm Calm - N/A   Overcast
4:15 AM 46.4 °F - 42.8 °F 87% 30.22 in 10.0 mi Calm Calm - N/A   Mostly Cloudy
4:35 AM 48.2 °F - 42.8 °F 82% 30.22 in 10.0 mi Calm Calm - N/A   Partly Cloudy
4:55 AM 46.4 °F - 39.2 °F 76% 30.22 in 10.0 mi Calm Calm - N/A   Clear
5:15 AM 46.4 °F - 39.2 °F 76% 30.22 in 10.0 mi Calm Calm - N/A   Partly Cloudy
5:35 AM 46.4 °F 43.5 °F 39.2 °F 76% 30.23 in 10.0 mi North 5.8 mph - N/A   Clear
5:50 AM 46.4 °F 43.5 °F 41.0 °F 81% 30.22 in 10.0 mi North 5.8 mph - N/A   Clear
6:45 AM 48.2 °F - 39.2 °F 71% 30.24 in 10.0 mi North 5.8 mph - N/A   Clear
7:48 AM 48.2 °F - 39.2 °F 71% 30.24 in 10.0 mi Calm Calm - N/A   Mostly Cloudy
8:45 AM 53.6 °F - 42.8 °F 67% 30.24 in 10.0 mi Variable 5.8 mph - N/A   Mostly Cloudy
9:45 AM 55.4 °F - 41.0 °F 58% 30.23 in 10.0 mi ENE 11.5 mph - N/A   Mostly Cloudy
10:45 AM 57.2 °F - 44.6 °F 63% 30.23 in 10.0 mi SE 9.2 mph - N/A   Scattered Clouds
11:45 AM 57.2 °F - 44.6 °F 63% 30.22 in 10.0 mi ESE 11.5 mph - N/A   Mostly Cloudy
12:45 PM 60.8 °F - 48.2 °F 63% 30.29 in 10.0 mi ESE 12.7 mph - N/A   Mostly Cloudy
1:50 PM 60.8 °F - 48.2 °F 63% 30.19 in 10.0 mi ESE 13.8 mph - N/A   Clear
2:55 PM 60.8 °F - 48.2 °F 63% 30.16 in 10.0 mi SE 17.3 mph - N/A   Clear
3:45 PM 57.2 °F - 48.2 °F 72% 30.15 in 10.0 mi ESE 10.4 mph - N/A   Clear
4:45 PM 57.2 °F - 48.2 °F 72% 30.14 in 10.0 mi East 10.4 mph - N/A   Scattered Clouds
5:45 PM 57.2 °F - 48.2 °F 72% 30.13 in 10.0 mi East 15.0 mph - N/A   Scattered Clouds
6:50 PM 55.4 °F - 48.2 °F 77% 30.13 in 10.0 mi East 11.5 mph - N/A   Scattered Clouds
7:45 PM 53.6 °F - 48.2 °F 82% 30.13 in 10.0 mi East 5.8 mph - N/A   Clear
8:45 PM 53.6 °F - 50.0 °F 88% 30.13 in 10.0 mi East 6.9 mph - N/A   Clear
9:50 PM 53.6 °F - 50.0 °F 88% 30.13 in 10.0 mi East 5.8 mph - N/A   Clear
10:55 PM 51.8 °F - 48.2 °F 88% 30.14 in 10.0 mi East 3.5 mph - N/A   Clear
11:15 PM 51.8 °F - 48.2 °F 88% 30.13 in 10.0 mi SE 3.5 mph - N/A   Clear
11:35 PM 53.6 °F - 48.2 °F 82% 30.13 in 10.0 mi Calm Calm - N/A   Clear
11:55 PM 50.0 °F - 46.4 °F 87% 30.13 in 10.0 mi ESE 4.6 mph - N/A   Clear